COSMOS 1275 DEB, 13812

Orbit data source: Space-Track

COSMOS 1275 DEB, 13812 is space debris in LEO originally from a launch on Thu, 04 Jun 1981 UTC launched from the Plesetsk Missile And Space Complex (PKMTR). Debris objects in space refer to the collection of defunct objects orbiting the Earth. Examples of debris include non-operational satellites, rocket bodies, and fragments generated from explosions, collisions, or faulty payload assembly.

Loading next visibility...
Identifier
13812, 1981-053HG
Orbit
LEO
Country
Flag of CISCIS
Related business
Manufacturer
Unknown
Mission
Spacecraft
Bus & Motor
Unknown
Mass
Unknown
Launch date (UTC)
1981-06-04 (45 years ago)
Launch vehicle
Unknown
Launch site
Plesetsk Missile And Space Complex (PKMTR)
Object type
Payload
Rocket body
Debris
Shape & HBR
Unknown shape, 0.1 m
Radar Cross Section
Small (<0.1 m²)

Expand to show TLE details & history
Last TLE update: 18 hours ago

TLE from 18 hours ago
0 COSMOS 1275 DEB
1 13812U 81053HG  25352.86610714  .00005963  00000-0  20028-2 0  9999
2 13812  83.2470 148.4637 0034378 165.8458 321.4989 14.36736020199890
Epoch: 2025-12-18T20:47Z
TLE epoch observation values (Epoch: 2025-12-18T20:47:11.656Z)
Latitude
52.47964°
Longitude
-79.87313°
Altitude
758.663 km
Speed
7.49 km/s
True Right ascension
21h 18m 33s
True Declination
52° 18' 48"
Sunlit
Object was in daylight at epoch
Visualization orbit readout
Latitude
Unknown
Longitude
Unknown
Altitude
Unknown
Speed
Unknown
Apparent Right ascension
Unknown
Apparent Declination
Unknown
Sunlit
N/A
Visualization observer readout
Local Sidereal Time
14:06:12
Azimuth
Unknown
Elevation
Unknown
Doppler factor
Unknown
Orbital elements
Apogee altitude
790.917 km
Perigee altitude
741.794 km
Semi-major axis
7,144.492 km
Eccentricity
0.00344
Inclination
83.247°
RAAN
148.4637°
Arg. of periapsis
165.8458°
True anomaly
321.25283°
Mean anomaly
321.4989°
Eccentric anomaly
321.37595°
Mean motion
3.59407 °/min
Orbital period
100.17 mins
BSTAR
0.0020028
Loading maneuver chart data...
Computing Atmospheric mass density...
Loading historical data...
Loading historical data...
Loading historical data...
Loading historical data...
Loading historical data...
Loading historical data...
Loading historical data...

Documentation

Showing up to 5 results
|